Wind_Speed
2 1 1 1 0 0 1 1 2 3 4 5 6 6 6 7 7 7 7 7 6 6 6 6 6 6 6 6 5 5 4 5 5 5 5 6 6 6 6 6 7 7 7
2 1 2 2 2 1 1 1 2 3 3 4 4 5 5 5 6 6 6 5 5 5 5 4 4 5 5 5 4 4 4 4 4 4 5 5 6 6 6 7 6 6 6
2 2 2 3 3 2 2 1 1 2 3 3 3 3 3 4 4 4 4 4 4 3 3 3 3 3 3 3 3 3 3 4 4 4 4 5 6 6 6 6 6 6 6
4 3 3 4 4 4 3 2 2 1 2 2 2 2 2 2 2 2 2 2 2 2 2 2 2 1 1 2 2 2 2 3 3 3 3 4 5 5 5 6 6 6 6
4 5 5 5 6 5 5 4 3 2 1 1 1 1 1 1 1 1 1 1 0 0 0 1 1 0 1 1 1 2 2 3 3 3 3 4 4 5 5 6 6 6 6
6 6 6 7 7 7 7 5 5 3 3 2 2 2 2 2 2 2 2 2 2 2 2 1 1 1 2 2 3 3 3 3 3 4 4 4 5 5 5 6 6 6 6
7 7 8 8 8 8 8 7 6 5 5 4 4 4 4 4 4 4 4 4 4 4 4 4 4 4 4 4 4 4 4 5 5 5 5 5 5 6 6 6 6 6 7
8 8 8 9 9 10 9 8 7 7 6 6 6 5 5 5 6 6 6 6 6 6 6 7 7 7 6 6 6 6 7 7 7 6 7 7 7 7 7 7 7 7 7
10 10 10 10 11 10 10 10 8 8 7 7 7 7 7 7 7 7 7 7 7 7 8 8 8 8 8 8 8 8 9 9 8 8 8 8 8 9 9 9 9 9 8
12 13 12 12 12 11 11 11 9 9 8 8 8 9 9 9 9 9 9 9 9 9 9 9 9 9 9 9 10 10 11 11 11 11 10 10 10 11 11 10 10 10 10
14 15 14 14 14 13 13 12 11 10 10 10 10 10 10 10 10 10 10 11 11 10 10 10 10 10 11 11 11 12 12 13 13 13 13 13 12 12 12 12 12 12 11
16 16 18 17 16 15 14 13 12 11 11 11 11 11 11 11 11 11 11 11 11 11 12 12 12 11 11 12 12 12 13 14 15 15 15 15 14 14 14 14 14 14 13
18 18 19 19 18 17 17 15 13 12 12 12 12 12 12 12 13 13 12 12 12 12 12 12 12 13 12 13 13 13 13 13 14 16 16 17 17 16 16 16 15 15 15
19 19 19 19 19 19 18 16 15 13 13 13 14 14 13 14 14 13 13 13 12 13 13 12 12 13 13 13 14 14 14 15 15 15 16 18 18 18 18 18 17 17 17
21 19 19 19 19 19 19 17 16 15 14 15 15 15 14 13 13 13 13 13 12 12 12 12 11 11 12 13 14 15 15 15 16 16 16 18 19 20 19 19 19 19 19
19 19 19 19 18 17 17 16 16 15 15 15 14 13 13 13 13 13 14 13 13 13 13 13 12 12 12 13 14 15 15 16 17 18 18 19 20 20 20 20 20 20 20
18 19 19 18 16 16 16 15 14 15 15 13 12 12 12 12 12 12 12 12 12 13 13 14 14 14 13 14 14 15 16 16 17 17 18 19 21 21 21 21 22 22 22
17 18 18 16 16 16 16 15 15 14 13 12 12 11 10 10 11 12 12 12 13 13 13 14 13 13 13 14 15 15 15 16 17 18 19 20 21 22 23 23 24 24 23
14 15 16 15 15 16 15 14 14 13 11 10 10 10 10 10 11 11 11 12 12 13 13 14 14 14 13 14 14 15 15 17 17 18 19 21 21 23 24 24 25 25 25
12 14 15 15 15 13 13 13 12 12 11 10 9 9 10 9 10 10 10 10 11 11 12 13 13 14 14 14 14 15 16 17 17 18 19 20 22 23 24 25 25 26 26
11 11 11 12 11 11 11 10 9 8 8 8 8 8 8 8 8 8 9 9 10 11 11 12 12 13 14 14 15 15 16 17 18 19 20 20 22 23 24 25 26 26 27
9 9 9 9 10 10 10 9 7 6 6 6 7 6 6 7 7 8 8 9 10 10 11 11 12 12 13 14 15 16 17 18 18 19 21 21 22 22 24 26 27 27 28
8 9 8 8 9 9 8 7 6 5 5 5 5 5 5 5 5 6 8 9 9 10 10 11 12 12 13 14 15 16 17 17 18 20 21 22 23 24 24 26 27 27 28
8 8 9 8 8 7 7 6 5 4 4 3 4 3 3 4 5 6 7 8 8 9 10 11 12 13 14 15 16 16 17 18 19 20 22 23 24 25 26 27 28 29 30
8 8 8 8 7 6 6 6 5 4 3 3 2 3 3 4 5 6 7 7 8 9 10 11 12 13 14 15 16 17 18 19 20 21 22 24 24 25 26 27 28 30 31
7 7 7 7 7 6 6 6 5 5 4 3 2 3 3 4 5 6 7 8 9 10 11 12 13 14 14 16 17 18 19 20 20 22 23 24 25 26 27 28 30 31 32
Wind_Direction
151 145 164 189 236 239 159 122 113 111 105 99 91 84 81 81 81 79 79 78 76 75 75 75 77 80 83 86 92 98 101 103 104 107 110 111 117 120 123 125 121 122 124
166 180 211 219 227 236 229 157 127 115 104 98 90 85 82 80 79 76 76 77 77 74 72 73 76 80 83 87 94 103 110 113 113 115 114 117 121 121 126 130 127 126 126
183 217 232 228 228 234 236 211 159 133 118 108 99 94 85 81 80 76 75 76 75 72 68 69 74 78 84 89 100 111 120 131 133 132 129 130 131 132 135 138 137 134 133
193 219 235 229 232 234 237 229 210 168 141 123 115 111 101 92 88 84 82 81 77 72 65 65 76 89 104 107 116 128 136 139 149 153 145 144 141 142 143 146 147 144 142
212 222 234 232 235 236 235 231 228 219 200 196 202 197 178 158 153 151 147 142 134 139 108 83 78 121 173 176 175 175 172 167 166 164 160 159 159 158 158 158 158 155 152
225 224 231 231 232 235 234 231 235 232 227 231 241 244 243 235 226 228 229 234 236 234 232 244 246 247 233 225 217 210 204 197 191 187 183 183 181 179 177 173 170 169 166
229 227 229 229 232 235 232 231 234 235 236 238 241 243 248 250 249 251 253 251 252 253 251 252 252 249 247 241 234 225 217 212 208 204 203 202 199 192 190 186 184 183 180
233 234 231 234 237 236 234 234 234 237 240 241 243 245 250 254 254 257 258 261 260 259 260 260 256 250 245 244 240 236 227 222 219 216 215 213 211 206 202 201 198 192 190
237 234 232 238 239 236 235 233 232 238 243 242 244 247 252 258 259 261 265 267 264 263 264 264 259 257 249 244 242 240 234 227 226 223 223 222 219 216 211 209 206 204 201
239 236 237 240 237 237 236 233 236 243 244 243 246 251 254 259 264 268 271 270 270 271 269 268 264 260 253 247 243 242 238 232 228 226 226 226 226 224 220 216 213 211 210
241 237 238 241 237 237 237 238 241 244 245 247 250 252 257 262 269 273 275 274 271 272 271 269 266 260 255 252 247 245 239 236 232 229 229 229 230 229 228 225 220 217 215
242 238 235 240 240 239 239 240 241 245 249 253 255 255 261 268 272 278 279 278 276 274 271 271 268 263 257 255 251 248 242 240 237 233 231 231 232 232 231 229 226 223 220
240 237 237 239 241 241 243 241 241 247 252 255 260 263 267 272 277 281 283 285 282 278 273 272 273 264 259 258 253 248 243 241 241 237 233 232 232 233 234 233 231 229 225
239 236 236 239 241 243 242 240 241 248 251 256 262 263 267 274 279 282 284 285 286 283 278 277 272 265 261 259 255 251 249 241 244 243 239 235 234 234 236 236 235 233 230
234 235 237 240 241 241 240 241 243 249 255 259 260 263 269 274 277 280 283 284 285 285 286 283 275 273 266 262 259 256 254 250 247 247 244 240 239 239 239 239 239 237 233
229 233 237 237 238 236 237 241 245 249 258 258 260 267 272 277 279 278 279 282 285 288 289 288 282 277 274 268 264 259 255 252 252 249 245 242 241 241 241 241 241 242 238
234 231 232 233 233 233 236 242 249 254 256 255 260 270 275 279 281 280 281 284 285 287 288 289 287 280 276 271 266 262 258 257 258 254 249 246 244 244 245 244 243 243 241
234 230 229 227 231 232 236 243 250 253 255 258 263 268 275 283 283 281 282 284 284 285 287 287 287 283 276 274 273 269 263 263 262 258 253 249 247 245 245 246 247 246 242
236 230 227 228 227 229 236 241 248 252 256 261 267 271 278 283 286 285 285 284 286 287 286 287 285 282 278 277 277 274 271 269 267 262 256 252 250 248 246 245 247 248 245
231 226 226 227 226 229 235 243 251 252 257 264 270 278 281 283 286 290 292 290 291 292 292 292 288 284 280 279 277 276 275 273 270 266 263 259 253 251 249 247 248 249 248
220 219 221 220 222 225 234 240 246 253 258 265 273 279 281 283 287 293 295 295 296 297 296 294 292 288 284 282 279 277 275 273 270 267 264 262 260 256 252 252 251 251 249
216 216 214 214 217 222 229 237 243 253 256 260 266 274 282 287 291 296 298 299 299 299 299 297 296 293 288 285 282 280 278 276 273 269 265 262 262 261 257 255 253 253 252
214 212 208 210 215 219 225 231 237 248 256 261 264 273 283 291 299 305 307 306 304 303 303 301 299 296 293 290 287 283 280 278 276 272 268 265 264 262 261 257 254 253 251
210 206 205 202 209 219 224 225 229 234 243 253 257 266 285 302 315 317 317 316 314 312 308 305 302 299 296 294 291 287 284 281 278 274 271 269 266 263 262 261 257 254 252
199 200 201 208 212 214 211 209 208 216 225 238 250 265 286 307 320 322 321 318 317 315 313 310 307 304 300 298 295 291 288 285 281 278 275 272 269 265 263 261 260 258 256
194 197 198 199 200 198 198 200 204 217 225 232 243 263 284 309 321 324 326 323 320 318 315 313 312 309 306 302 299 295 291 288 285 282 278 275 272 269 266 263 261 260 258
Height
5909 5909 5909 5909 5909 5909 5909 5909 5908 5908 5908 5908 5907 5907 5906 5906 5906 5906 5906 5906 5905 5905 5905 5905 5905 5905 5905 5905 5905 5904 5904 5904 5904 5903 5903 5903 5903 5903 5903 5903 5903 5903 5904
5909 5909 5909 5909 5909 5909 5909 5909 5908 5908 5908 5908 5907 5907 5907 5907 5906 5906 5906 5906 5906 5906 5906 5906 5906 5906 5906 5905 5905 5905 5905 5905 5905 5904 5904 5904 5904 5904 5904 5904 5905 5905 5905
5908 5908 5908 5908 5908 5908 5908 5908 5908 5908 5908 5907 5907 5907 5907 5907 5907 5907 5907 5906 5906 5906 5906 5906 5906 5906 5906 5906 5906 5906 5905 5905 5905 5905 5905 5905 5905 5905 5905 5905 5905 5906 5906
5906 5906 5907 5907 5907 5907 5907 5907 5907 5907 5907 5907 5907 5907 5907 5907 5907 5907 5907 5907 5907 5907 5906 5906 5906 5906 5906 5906 5906 5906 5906 5906 5906 5906 5905 5905 5905 5906 5906 5906 5906 5907 5907
5904 5904 5905 5906 5906 5906 5906 5906 5906 5906 5906 5906 5906 5906 5906 5906 5906 5906 5906 5906 5906 5906 5906 5906 5906 5906 5906 5906 5906 5906 5906 5906 5906 5906 5906 5906 5906 5906 5907 5907 5907 5907 5908
5902 5902 5903 5904 5905 5905 5905 5905 5905 5905 5905 5905 5905 5905 5906 5906 5906 5906 5906 5906 5906 5906 5906 5906 5906 5906 5906 5905 5906 5906 5906 5906 5906 5906 5906 5906 5906 5906 5907 5907 5908 5908 5909
5900 5900 5901 5902 5903 5903 5903 5903 5904 5904 5904 5904 5904 5904 5905 5905 5905 5905 5905 5905 5905 5905 5905 5905 5905 5905 5905 5905 5905 5905 5905 5906 5906 5906 5906 5906 5907 5907 5907 5908 5908 5909 5909
5898 5899 5899 5900 5901 5902 5902 5902 5902 5902 5903 5903 5903 5903 5903 5904 5904 5904 5904 5904 5904 5904 5904 5903 5903 5903 5904 5904 5904 5904 5904 5905 5905 5905 5906 5906 5906 5907 5907 5908 5908 5909 5909
5896 5897 5897 5898 5899 5899 5900 5900 5900 5901 5901 5901 5901 5901 5902 5902 5902 5902 5902 5902 5902 5902 5902 5902 5902 5902 5902 5902 5902 5903 5903 5903 5904 5904 5905 5905 5906 5906 5907 5907 5908 5908 5909
5893 5894 5895 5896 5896 5897 5897 5898 5898 5899 5899 5899 5899 5899 5900 5900 5900 5899 5899 5899 5899 5899 5899 5899 5899 5900 5900 5900 5900 5901 5901 5901 5902 5903 5903 5904 5905 5905 5906 5906 5907 5908 5909
5891 5891 5892 5893 5893 5894 5895 5895 5896 5896 5896 5896 5896 5897 5897 5897 5897 5897 5897 5897 5897 5897 5896 5897 5896 5897 5897 5897 5898 5898 5898 5899 5900 5900 5901 5902 5903 5904 5904 5905 5906 5906 5907
5887 5888 5889 5890 5890 5891 5892 5892 5893 5893 5893 5893 5894 5894 5894 5894 5894 5894 5894 5893 5893 5893 5893 5893 5893 5893 5894 5894 5894 5895 5895 5896 5897 5897 5899 5900 5901 5902 5902 5903 5904 5905 5906
5883 5884 5885 5886 5887 5888 5888 5889 5890 5890 5890 5891 5891 5891 5892 5892 5891 5891 5891 5890 5890 5890 5890 5890 5890 5890 5890 5890 5891 5891 5892 5893 5894 5894 5895 5897 5898 5899 5900 5901 5902 5903 5904
5879 5880 5882 5883 5884 5885 5885 5886 5887 5887 5888 5888 5889 5889 5889 5889 5888 5888 5887 5887 5887 5886 5886 5887 5887 5887 5887 5887 5888 5888 5889 5889 5890 5891 5892 5893 5895 5896 5897 5898 5899 5900 5901
5874 5876 5878 5879 5880 5881 5883 5884 5884 5885 5885 5885 5886 5886 5885 5885 5885 5885 5884 5884 5884 5884 5883 5883 5883 5883 5884 5884 5884 5885 5885 5886 5887 5888 5889 5890 5891 5892 5894 5895 5896 5897 5898
5870 5873 5874 5876 5877 5878 5880 5881 5881 5882 5882 5882 5883 5883 5883 5882 5882 5882 5881 5881 5881 5881 5881 5880 5880 5880 5880 5881 5881 5881 5882 5882 5883 5884 5885 5886 5887 5889 5890 5891 5892 5893 5894
5867 5869 5871 5872 5874 5876 5877 5879 5879 5879 5880 5880 5880 5880 5880 5880 5879 5879 5879 5879 5878 5878 5878 5878 5877 5877 5877 5878 5878 5878 5878 5879 5879 5880 5881 5882 5883 5885 5886 5887 5888 5889 5890
5865 5866 5868 5870 5872 5873 5875 5876 5877 5877 5877 5877 5877 5878 5878 5877 5877 5876 5876 5876 5875 5875 5875 5875 5874 5874 5874 5874 5874 5874 5875 5875 5875 5876 5877 5878 5879 5880 5881 5882 5884 5884 5885
5862 5863 5865 5867 5869 5871 5872 5873 5874 5874 5874 5875 5875 5875 5875 5875 5874 5874 5873 5873 5872 5872 5872 5872 5871 5871 5871 5871 5871 5871 5871 5871 5871 5872 5872 5873 5874 5875 5876 5878 5879 5880 5881
5859 5861 5862 5865 5867 5868 5870 5871 5871 5872 5872 5872 5873 5873 5873 5873 5872 5872 5871 5870 5870 5869 5869 5868 5868 5868 5867 5867 5867 5867 5867 5867 5867 5868 5868 5869 5869 5870 5871 5872 5874 5874 5876
5857 5859 5861 5863 5864 5866 5868 5869 5869 5870 5870 5870 5871 5870 5870 5870 5870 5869 5869 5868 5867 5867 5866 5866 5865 5864 5864 5864 5864 5863 5863 5863 5863 5863 5863 5864 5864 5865 5866 5867 5868 5869 5870
5856 5858 5859 5861 5862 5864 5866 5867 5867 5868 5868 5868 5868 5868 5868 5868 5868 5867 5867 5866 5865 5864 5864 5863 5862 5861 5861 5860 5860 5859 5859 5859 5859 5858 5859 5859 5859 5860 5860 5861 5862 5863 5864
5854 5856 5858 5860 5861 5863 5864 5865 5866 5866 5866 5867 5867 5867 5867 5866 5866 5865 5865 5864 5863 5862 5861 5860 5859 5858 5857 5857 5856 5856 5855 5855 5854 5854 5853 5853 5854 5854 5855 5856 5856 5857 5858
5854 5855 5857 5859 5860 5862 5862 5863 5864 5865 5865 5865 5865 5865 5865 5865 5864 5864 5863 5862 5861 5860 5859 5858 5856 5855 5854 5853 5852 5851 5850 5850 5849 5848 5848 5848 5848 5848 5848 5849 5850 5851 5851
5853 5855 5856 5858 5859 5860 5861 5862 5863 5864 5864 5864 5864 5864 5864 5864 5863 5862 5861 5860 5859 5858 5856 5855 5854 5852 5851 5849 5848 5847 5846 5845 5844 5843 5843 5842 5842 5842 5842 5842 5843 5844 5845
5852 5854 5855 5857 5858 5859 5860 5861 5862 5862 5863 5863 5863 5863 5862 5862 5861 5860 5859 5858 5857 5855 5854 5852 5850 5849 5847 5845 5844 5842 5841 5840 5838 5837 5836 5836 5835 5835 5835 5835 5836 5836 5837